Regional Weather Roundup
Issued by NWS

Home | Current Version | Previous Version | Graphics & Text | Print | Product List | Glossary On
Versions: 1 2 3 4 5 6 7 8 9 10 11 12 13 14 15 16 17 18 19 20 21 22 23 24 25 26 27 28 29 30 31 32 33 34 35 36 37 38 39 40 41 42 43 44 45 46 47 48 49 50
000
ASUS43 KOAX 241702
RWRNE

WEATHER ROUNDUP FOR NEBRASKA
NATIONAL WEATHER SERVICE OMAHA NE
1200 PM CDT THU APR 24 2014

NOTES: SATELLITE DATA IS BEING USED TO AUGMENT CLOUD COVER ABOVE
       12000 FEET.
       "FAIR" INDICATES FEW OR NO CLOUDS BELOW 12,000 FEET WITH NO
       SIGNIFICANT WEATHER AND/OR OBSTRUCTIONS TO VISIBILITY.

  * THESE STATIONS DO NOT REPORT WEATHER SUCH AS RAIN...SNOW OR FOG.

NEZ001>004-019>022-054>056-241800-
NEBRASKA PANHANDLE

CITY           SKY/WX    TMP DP  RH WIND       PRES   REMARKS
SCOTTSBLUFF    SUNNY     58  16  19 W18       29.94F
ALLIANCE       SUNNY     58  17  20 MISG      29.91S
CHADRON        SUNNY     59  24  26 W18G24    29.89F
KIMBALL        SUNNY     55  12  18 NW14G24   29.96S
SIDNEY         SUNNY     58  14  17 NW18G30   29.96F
$$

NEZ057>060-069>072-079>082-241800-
SOUTHWEST NEBRASKA

CITY           SKY/WX    TMP DP  RH WIND       PRES   REMARKS
NORTH PLATTE   SUNNY     63  23  21 NW21G28   29.88F
IMPERIAL       SUNNY     62  14  15 NW16G26   29.93S
LEXINGTON      SUNNY     65  20  17 NW24G37   29.85S
MCCOOK         SUNNY     64  21  19 NW22G32   29.90F
OGALLALA       SUNNY     60  15  17 NW18G26   29.92F
$$

NEZ005>010-023>029-035>040-094-241800-
NORTH CENTRAL NEBRASKA

CITY           SKY/WX    TMP DP  RH WIND       PRES   REMARKS
VALENTINE      SUNNY     61  20  20 NW12G24   29.84S
AINSWORTH      SUNNY     62  18  18 NW21G26   29.84R
BROKEN BOW     SUNNY     64  17  16 NW25      29.83S
O`NEILL        SUNNY     64  14  14 NW25G35   29.79S
ORD            SUNNY     64  26  23 N26G36    29.79S
THEDFORD       SUNNY     64  15  15 NW21G29   29.87S
$$

NEZ041-046>049-061>064-073>077-083>087-241800-
SOUTH CENTRAL NEBRASKA

CITY           SKY/WX    TMP DP  RH WIND       PRES   REMARKS
GRAND ISLAND   PTSUNNY   62  36  37 N21G32    29.81R
AURORA         PTSUNNY   60  41  50 N23G32    29.79R
HASTINGS       PTSUNNY   61  38  42 N22G32    29.82R
HEBRON         CLOUDY    57  42  58 N14       29.81R
HOLDREGE       SUNNY     61  33  34 N17G26    29.85R
KEARNEY *      MOSUNNY   63  30  29 N24G30    29.83S
YORK           PTSUNNY   57  45  62 N16G26    29.78R
$$

NEZ011>018-030>034-042>045-241800-
NORTHEAST NEBRASKA

CITY           SKY/WX    TMP DP  RH WIND       PRES   REMARKS
NORFOLK        CLOUDY    59  42  53 N23       29.75R
ALBION         MOSUNNY   61  33  35 N21G28    29.77S
BLAIR          CLOUDY    54  49  82 NW16G25   29.72R
COLUMBUS *     PTSUNNY   57  43  58 N15       29.77R
FREMONT        PTSUNNY   56  48  74 N10G20    29.75R
TEKAMAH        CLOUDY    58  51  78 N17       29.72R
$$

NEZ050>053-065>068-078-088>093-241800-
SOUTHEAST NEBRASKA

CITY           SKY/WX    TMP DP  RH WIND       PRES   REMARKS
LINCOLN        CLOUDY    60  48  64 N15       29.76R
OMAHA EPPLEY   CLOUDY    55  49  80 N18G26    29.71R
BEATRICE       CLOUDY    57  47  69 N13       29.76R
NEBRASKA CITY  CLOUDY    57  52  84 N17       29.72R
PLATTSMOUTH    CLOUDY    56  49  78 NW18G25   29.73R
$$

NEZ044-045-051>053-067-241800-
OMAHA AREA

CITY           SKY/WX    TMP DP  RH WIND       PRES   REMARKS
OMAHA EPPLEY   CLOUDY    55  49  80 N18G26    29.71R
BLAIR          CLOUDY    54  49  82 NW16G25   29.72R
FREMONT        PTSUNNY   56  48  74 N10G20    29.75R
MILLARD        CLOUDY    55  48  78 NW18G26   29.72R
OFFUTT AFB     CLOUDY    56  54  93 NW14G21   29.73R
PLATTSMOUTH    CLOUDY    56  49  78 NW18G25   29.73R
WAHOO          CLOUDY    58  49  74 N18       29.73R
$$



USA.gov is the U.S. government's official web portal to all federal, state and local government web resources and services.